Location: Ferintosh
(52.7647°N, 112.9692°W)
Time: 18:07:48
(UTC+00:00)

Explorer 7 - Pass Details

Date: 24 May 2024
Orbit: 466 x 622 km, 50.3° (Epoch: 15 June)

Event Time Altitude Azimuth Distance (km) Brightness Sun altitude
Rises 09:22:22 0° 273° (W) 2,603 10.0 -12.3°
Reaches altitude 10° 09:24:33 10° 268° (W) 1,743 9.1 -12.2°
Maximum altitude 09:28:24 54° 192° (SSW) 657 6.8 -11.9°
Drops below altitude 10° 09:32:29 10° 115° (ESE) 1,837 9.6 -11.6°
Sets 09:34:49 0° 111° (ESE) 2,761 10.5 -11.4°
